Theta_e
317 317 319 320 320 321 321 319 316 317 316 316 318 319 320 321 321 324 327 328 326 326 326 326 326 325 329 335 336 336 333 335 336 336 335 338 339 339 338 340 337 335 336 336 339
316 317 318 319 320 321 322 320 317 316 318 317 319 319 321 322 321 325 328 328 327 326 326 325 326 326 328 333 335 333 329 334 334 333 333 337 338 338 339 338 330 335 333 329 327
316 317 317 318 320 321 322 321 317 317 319 317 319 319 320 322 322 326 328 328 327 326 324 323 326 328 330 334 335 332 334 331 336 336 336 337 337 339 338 337 332 333 329 327 326
314 316 317 318 320 321 322 319 318 319 319 317 319 319 319 325 328 330 329 328 328 327 325 325 329 334 331 331 333 334 332 334 336 336 337 338 338 339 339 339 338 335 334 327 325
314 315 317 318 320 321 321 318 320 321 320 317 319 319 323 329 330 328 328 329 327 326 326 324 334 335 333 335 333 334 334 335 336 336 338 339 339 339 338 339 339 331 329 328 326
313 314 316 318 319 321 320 320 320 320 321 317 318 319 324 327 328 328 329 328 326 327 330 331 329 336 335 335 332 334 333 334 336 336 338 339 339 339 340 338 335 329 329 329 329
312 313 315 317 319 320 319 320 320 320 321 317 318 319 326 327 327 329 329 326 325 325 324 327 335 335 333 334 335 334 334 332 336 336 338 339 340 340 340 338 334 330 330 331 330
312 312 314 315 318 320 319 320 320 320 318 317 318 319 326 326 328 329 329 326 325 325 325 324 334 335 334 334 333 334 331 336 333 338 339 339 342 339 339 335 330 331 332 333 332
311 312 313 314 318 319 319 320 320 320 319 316 318 320 325 326 326 328 329 326 326 327 326 325 334 334 331 327 325 328 333 335 337 337 339 337 339 335 338 333 329 332 334 333 331
311 312 312 314 317 318 320 319 321 322 320 318 323 322 325 326 326 326 327 326 326 326 326 328 333 328 324 326 329 328 334 334 336 334 338 340 341 337 337 331 331 333 335 334 333
311 311 312 314 316 318 320 320 321 320 320 320 320 321 323 325 326 326 327 326 326 325 322 324 322 322 321 326 327 328 332 334 332 334 338 339 340 335 339 337 334 331 333 334 335
311 311 312 313 316 317 319 318 316 318 319 319 320 320 321 322 324 326 326 326 325 323 324 322 323 324 322 325 329 333 334 334 333 334 335 334 334 335 337 340 339 339 336 336 336
310 311 312 313 315 317 318 317 317 320 318 320 320 320 322 323 324 326 327 326 325 325 324 324 324 324 324 324 332 332 333 332 334 335 334 330 330 333 338 340 341 341 341 340 340
310 311 312 313 316 316 320 318 318 321 318 321 322 322 322 323 324 326 326 327 325 325 322 324 324 324 323 325 330 331 328 332 335 332 334 328 333 330 336 336 339 340 341 341 341
310 311 311 312 313 315 316 318 319 321 325 325 322 322 323 324 325 325 326 326 323 325 324 324 325 324 325 327 329 330 331 332 333 333 332 333 332 333 335 334 333 333 339 340 340
310 311 311 312 313 316 316 318 321 322 326 324 321 319 321 322 324 325 325 326 326 323 323 322 324 324 325 328 330 331 329 325 327 328 332 333 334 334 333 333 331 332 333 332 333
310 310 312 312 313 314 317 319 320 326 325 324 318 318 319 321 322 323 323 324 324 325 325 322 324 322 327 330 328 327 326 330 332 331 332 330 337 333 330 330 332 332 333 333 334
310 311 312 312 313 316 319 319 327 328 328 326 319 318 318 319 321 321 321 320 322 322 321 323 324 325 325 331 331 330 328 329 335 332 330 329 338 332 330 332 332 333 334 334 333
310 312 313 313 315 320 320 319 324 326 327 324 324 320 320 319 320 320 320 319 320 320 322 322 324 325 330 330 329 331 330 327 327 326 328 326 328 326 332 331 333 333 334 333 332
310 312 315 314 320 322 313 315 321 324 325 325 327 323 325 325 320 319 319 321 322 321 322 322 324 323 330 330 330 329 327 330 325 331 333 329 331 330 331 331 332 332 332 332 331
311 313 320 316 322 321 312 312 318 322 323 324 325 325 328 329 321 318 320 322 324 322 322 320 322 323 329 329 329 330 330 328 324 326 332 334 331 325 330 329 330 331 332 331 332
311 311 320 317 319 313 313 316 320 323 325 325 326 328 329 327 323 322 324 326 330 324 324 323 320 323 326 327 327 328 329 326 328 329 329 329 331 330 330 330 330 331 332 331 331
312 314 321 319 316 314 314 317 321 322 322 323 325 325 327 329 329 330 328 330 331 329 329 327 325 328 328 325 326 330 330 327 323 326 331 331 330 330 332 330 331 331 332 331 331
312 313 322 320 318 315 318 318 322 322 322 323 324 327 326 329 329 332 333 332 330 330 329 328 323 324 325 325 325 331 330 330 327 328 329 329 328 328 331 330 331 331 332 330 330
311 313 319 318 319 318 318 319 320 320 323 322 324 330 328 333 331 332 329 331 333 329 329 320 324 328 327 326 330 330 330 330 330 328 332 330 329 328 331 330 331 332 332 329 328
311 315 318 320 321 322 318 321 320 321 323 324 329 334 333 335 334 334 331 329 332 329 329 324 325 330 332 332 332 332 331 332 332 331 329 333 332 331 334 332 331 331 330 326 328
311 315 321 321 320 319 316 318 319 322 324 325 331 334 332 332 332 332 332 330 328 329 327 328 329 329 329 331 328 325 331 334 334 333 334 335 331 334 333 333 332 329 329 328 329
Wind_Speed
17 17 18 20 22 23 25 27 26 20 15 7 2 3 5 6 6 6 7 4 3 3 4 4 5 5 2 1 1 3 4 3 7 6 5 10 5 7 3 6 2 3 9 12 16
15 17 18 18 20 22 23 26 26 19 16 7 1 3 5 5 5 6 6 4 2 0 1 2 4 6 5 2 1 3 4 7 8 6 5 11 7 10 7 7 2 9 13 19 16
15 16 17 18 19 21 23 25 25 19 17 7 0 4 6 5 5 5 7 3 2 3 1 1 3 8 4 4 0 1 3 4 6 10 9 12 8 9 10 3 12 23 24 21 16
18 16 16 18 18 20 22 24 22 20 16 6 2 5 7 8 4 3 5 6 6 2 2 2 9 3 4 4 2 1 1 6 6 11 16 12 7 3 18 5 15 18 19 20 16
18 17 16 17 17 19 22 22 21 19 15 5 3 6 7 4 3 3 9 9 2 1 2 2 7 3 5 4 3 1 2 6 5 13 13 12 14 6 20 6 15 22 22 19 16
18 17 17 16 17 18 22 19 20 18 13 5 3 8 7 4 4 6 11 8 5 5 10 6 1 6 8 3 2 2 5 2 5 12 10 6 2 3 14 13 18 22 21 18 16
18 17 16 16 16 18 19 20 19 17 9 3 3 8 7 4 6 11 11 8 5 3 6 10 6 5 4 3 3 5 4 4 1 7 2 5 5 13 16 23 24 24 22 19 18
17 17 16 16 15 17 18 21 18 9 4 2 4 7 4 8 10 13 11 8 3 2 4 3 2 6 2 8 5 5 5 2 3 11 3 10 11 15 18 28 29 28 25 25 23
17 16 16 16 15 16 19 18 7 8 11 2 4 4 2 6 6 10 10 5 2 4 5 5 5 4 6 4 3 5 3 5 6 12 4 6 9 7 23 29 28 31 29 28 27
16 16 16 15 14 15 16 14 3 5 13 2 1 2 3 3 3 8 8 7 2 4 5 2 2 3 3 3 5 4 4 4 5 7 6 7 22 4 17 25 27 32 31 31 31
15 15 15 14 13 13 14 17 6 2 16 3 6 5 3 2 5 7 8 6 3 0 2 3 4 3 8 10 5 2 3 4 3 4 6 11 13 9 16 23 17 25 35 36 35
15 15 15 12 11 9 9 18 17 12 9 15 14 19 13 7 1 4 9 6 3 2 1 4 2 4 5 1 4 3 3 5 1 2 4 0 10 2 7 18 24 28 33 36 37
15 15 15 12 9 5 4 14 17 13 4 9 7 9 7 6 4 7 10 5 2 2 1 3 4 10 5 5 3 3 4 1 2 2 2 5 7 4 3 4 18 28 31 34 38
14 15 15 13 3 10 1 13 17 9 4 6 3 5 8 4 2 4 9 4 2 2 5 2 4 5 8 3 3 4 3 5 4 4 2 3 4 4 3 7 9 22 29 37 38
13 15 14 13 13 10 8 12 15 1 3 1 3 4 10 8 5 6 8 9 6 3 4 6 4 7 4 5 0 3 4 5 3 3 1 5 3 7 5 6 6 15 27 27 31
13 15 13 14 12 5 13 14 3 5 1 2 3 3 4 2 2 3 5 4 2 4 1 5 5 3 4 3 4 6 4 7 4 3 4 5 3 6 3 4 8 8 14 16 22
13 14 15 14 12 11 13 9 4 3 3 1 3 3 2 1 0 2 2 2 4 3 3 6 5 4 3 3 4 4 6 3 4 5 4 4 2 8 6 5 4 13 21 25 27
13 14 14 13 9 8 9 4 4 2 4 4 2 3 5 5 3 1 3 1 1 5 3 3 7 2 4 2 3 3 4 5 1 1 5 4 4 5 4 3 5 9 15 19 26
13 13 12 6 4 2 3 3 4 3 3 5 2 4 1 2 3 2 5 4 7 8 8 5 5 3 2 3 3 1 2 3 6 3 2 3 7 7 2 1 5 9 14 20 26
14 12 4 3 5 2 4 4 3 4 5 2 2 2 3 1 4 5 6 3 5 13 7 7 2 3 4 4 6 2 4 3 3 0 3 5 5 5 4 6 3 7 16 21 22
12 6 6 9 5 1 2 5 5 11 6 2 2 2 1 1 4 5 5 3 2 2 7 5 4 5 1 1 5 1 1 5 4 4 4 2 7 5 5 7 6 6 11 16 18
7 3 8 12 2 2 1 4 7 7 4 2 3 2 1 2 3 2 3 4 6 8 6 1 5 1 6 3 2 1 3 5 5 4 2 4 6 3 3 6 3 4 8 12 15
9 4 0 6 2 2 5 4 5 4 4 4 3 3 3 3 4 2 3 2 5 3 7 6 3 3 8 6 4 1 2 5 4 3 5 4 6 2 2 5 5 5 8 12 15
5 3 1 5 1 4 3 4 4 7 5 3 2 3 4 7 6 3 5 6 7 6 8 5 3 6 5 6 3 5 3 3 4 3 3 5 6 4 6 7 4 5 7 13 17
3 2 1 1 3 1 1 3 5 5 2 5 4 2 1 4 4 4 5 5 6 5 4 4 3 4 4 6 3 3 1 3 5 3 4 3 6 7 7 3 2 4 7 14 16
2 4 4 3 5 0 1 3 4 5 1 3 5 3 2 4 2 1 1 1 2 5 3 3 1 1 2 2 3 3 4 3 2 3 7 4 6 2 3 2 2 5 3 3 9
2 6 5 2 2 2 3 4 4 6 2 1 8 3 4 2 1 2 4 5 3 2 2 3 4 3 4 4 4 4 3 3 2 4 1 4 3 3 0 1 3 4 5 7 6
Wind_Direction
350 355 1 1 3 6 5 5 4 5 7 4 37 141 150 152 156 166 167 169 151 142 189 193 216 232 207 303 59 104 69 154 193 170 201 167 143 170 229 161 184 210 189 185 172
348 347 353 358 357 0 1 359 356 356 358 352 27 154 155 161 167 162 171 183 161 210 156 219 215 206 163 164 129 87 103 213 185 183 183 167 167 170 161 161 108 147 170 168 176
342 346 347 352 354 355 354 354 349 347 346 335 298 163 156 165 141 155 151 143 210 206 243 206 193 148 125 150 250 107 172 166 209 176 168 158 178 167 164 225 191 166 170 179 186
333 340 342 345 350 348 349 348 346 337 337 318 199 169 159 152 155 141 166 185 221 206 213 171 182 184 119 133 146 324 280 171 177 186 158 162 173 219 188 235 218 193 180 182 193
325 330 335 339 344 343 344 345 343 339 335 309 204 171 159 161 173 151 144 169 171 335 340 238 189 166 111 105 126 56 347 203 203 182 174 173 184 188 199 267 196 184 184 192 201
321 323 327 332 338 340 341 341 336 335 331 306 212 174 170 156 197 171 156 164 96 34 51 60 301 112 108 106 128 95 66 358 177 168 174 165 0 218 222 207 186 190 196 207 219
319 321 321 326 333 336 340 337 328 327 321 283 208 185 184 155 154 160 154 161 135 69 23 32 119 6 99 65 71 79 71 6 96 174 188 170 266 230 220 193 191 198 209 219 232
319 321 320 324 331 334 341 337 337 17 335 257 202 192 192 178 164 171 166 176 160 8 325 310 172 108 111 127 30 61 38 34 254 159 211 157 263 223 212 188 194 202 212 223 233
319 322 320 326 332 333 344 336 342 37 24 292 185 188 210 198 196 191 190 181 145 347 320 201 192 91 133 105 25 17 205 210 329 197 139 189 277 325 199 194 196 207 216 228 236
320 322 322 329 333 338 355 335 284 305 2 59 184 191 204 158 195 214 215 207 268 341 67 113 97 54 47 77 250 209 221 224 216 213 191 213 253 335 202 200 204 209 222 230 241
320 322 323 331 332 348 8 27 16 310 338 251 288 279 249 256 230 208 203 220 255 82 99 74 74 241 251 221 213 191 198 244 225 212 156 231 266 251 239 219 218 221 225 232 243
319 323 323 332 332 349 10 40 20 317 307 295 264 265 255 278 194 193 179 178 190 162 153 26 301 249 321 96 148 148 255 268 114 12 160 68 268 331 283 223 215 227 235 240 247
320 324 323 331 332 350 12 12 353 343 276 294 242 241 240 215 205 185 184 177 128 101 66 158 266 305 16 354 113 217 201 107 58 45 89 347 313 350 333 239 222 237 249 251 255
320 322 325 335 355 351 101 341 338 332 54 280 238 218 206 196 242 198 205 173 74 157 163 285 299 334 342 323 132 332 243 122 117 60 278 11 279 314 306 296 246 244 249 254 259
317 318 326 330 326 336 318 324 330 265 40 308 187 180 177 169 149 197 205 203 160 186 96 256 312 326 331 298 182 291 61 92 96 130 107 354 56 275 338 315 283 261 261 266 272
313 314 318 317 322 330 320 330 326 44 339 34 174 152 131 217 159 115 175 184 147 135 20 228 262 222 223 24 72 120 55 39 53 70 21 334 84 294 299 290 308 313 319 323 330
308 310 310 310 313 308 322 334 49 120 334 89 183 158 108 183 187 99 121 126 151 89 341 342 282 316 219 73 25 85 65 353 3 8 241 300 22 246 289 311 272 298 322 335 344
306 306 302 310 301 302 328 45 62 300 273 306 103 91 170 166 225 106 109 220 169 99 113 143 325 1 342 107 173 40 138 145 231 263 270 318 244 262 230 303 318 319 329 340 347
310 309 311 326 273 304 333 55 211 224 281 324 37 102 239 214 153 138 182 216 215 170 165 160 271 297 34 113 107 189 42 148 105 25 40 263 295 319 272 279 347 342 340 342 354
325 329 344 181 188 344 68 238 255 234 325 326 95 130 177 155 152 149 189 213 240 194 160 212 301 255 169 89 44 134 146 34 14 163 287 291 285 244 310 292 303 327 330 352 3
332 339 348 163 178 325 146 243 284 294 283 295 42 40 55 335 172 178 193 272 243 66 137 140 118 280 59 219 204 83 340 58 116 124 175 272 276 225 259 278 217 272 332 349 5
329 343 348 163 97 29 185 208 311 300 329 321 113 55 63 174 128 205 181 233 333 148 138 115 130 222 237 266 220 142 177 133 121 242 160 149 273 281 279 319 212 302 341 352 1
325 293 360 181 130 307 299 285 271 306 303 350 47 21 12 59 86 46 23 13 55 129 161 180 31 34 348 358 358 334 110 96 103 75 192 136 267 166 250 247 244 331 348 357 351
314 356 119 205 174 129 353 297 305 309 263 344 48 45 38 31 13 60 20 355 29 70 75 110 104 143 185 213 200 312 315 142 138 114 180 225 285 299 253 243 264 334 5 359 350
293 311 12 288 335 80 27 295 320 320 323 23 23 49 274 42 30 32 3 1 20 25 53 92 126 150 212 234 226 248 322 172 211 192 172 272 209 263 242 254 203 14 18 4 358
315 341 344 287 312 284 245 268 232 272 284 348 108 13 100 111 137 6 57 40 244 355 63 9 170 90 267 263 334 264 298 260 132 132 263 285 280 272 315 299 232 45 44 19 353
289 306 312 316 62 92 228 247 268 332 322 195 166 101 72 158 225 300 294 296 282 351 93 73 123 84 267 338 5 352 281 322 102 72 317 237 286 278 262 323 11 348 305 334 329